Total_Precipitation_Accumulation
0.10 0.05 0.06 0.05 0.09 0.10 0.11 0.15 0.17 0.18 0.16 0.15 0.14 0.13 0.14 0.13 0.11 0.10 0.09 0.12 0.16 0.23 0.26 0.28 0.27 0.25 0.25 0.24 0.20 0.16 0.13 0.14 0.17 0.18 0.23 0.28 0.33 0.35 0.38 0.37 0.45 0.44 0.29
0.07 0.05 0.07 0.05 0.06 0.08 0.10 0.14 0.16 0.16 0.17 0.18 0.18 0.18 0.17 0.13 0.10 0.10 0.10 0.14 0.20 0.25 0.25 0.25 0.23 0.21 0.21 0.18 0.14 0.12 0.12 0.15 0.24 0.32 0.38 0.42 0.47 0.44 0.41 0.37 0.49 0.57 0.33
0.08 0.06 0.05 0.05 0.05 0.07 0.10 0.13 0.15 0.13 0.15 0.17 0.18 0.18 0.14 0.11 0.09 0.09 0.09 0.14 0.19 0.21 0.19 0.16 0.14 0.14 0.15 0.12 0.11 0.11 0.12 0.19 0.34 0.54 0.87 0.80 0.63 0.48 0.44 0.37 0.31 0.28 0.28
0.08 0.06 0.04 0.06 0.06 0.07 0.07 0.11 0.16 0.16 0.15 0.15 0.16 0.15 0.14 0.13 0.12 0.12 0.12 0.15 0.17 0.17 0.13 0.11 0.10 0.10 0.12 0.10 0.10 0.11 0.15 0.25 0.47 0.79 1.42 1.24 0.89 0.71 0.56 0.41 0.28 0.22 0.25
0.08 0.06 0.07 0.08 0.09 0.10 0.09 0.08 0.14 0.17 0.17 0.18 0.18 0.17 0.17 0.17 0.16 0.15 0.15 0.17 0.17 0.17 0.18 0.17 0.14 0.11 0.11 0.11 0.12 0.16 0.25 0.39 0.66 1.09 1.68 1.57 1.32 0.99 0.62 0.44 0.38 0.30 0.28
0.12 0.09 0.10 0.10 0.11 0.14 0.14 0.14 0.15 0.17 0.19 0.21 0.21 0.20 0.20 0.19 0.19 0.16 0.17 0.17 0.18 0.19 0.22 0.24 0.20 0.13 0.11 0.11 0.14 0.20 0.32 0.53 0.76 1.19 1.75 1.67 1.39 1.02 0.62 0.51 0.45 0.38 0.32
0.23 0.20 0.16 0.15 0.14 0.15 0.17 0.22 0.25 0.20 0.21 0.24 0.24 0.22 0.22 0.22 0.21 0.20 0.19 0.18 0.21 0.24 0.25 0.21 0.16 0.11 0.10 0.11 0.16 0.23 0.37 0.65 0.92 1.48 1.79 1.64 1.61 1.09 0.72 0.63 0.56 0.45 0.35
0.33 0.29 0.29 0.23 0.16 0.17 0.21 0.23 0.29 0.32 0.32 0.31 0.29 0.26 0.26 0.24 0.22 0.24 0.25 0.25 0.28 0.32 0.29 0.19 0.12 0.10 0.09 0.10 0.14 0.22 0.39 0.57 0.78 1.38 1.76 1.55 1.34 1.03 0.84 0.74 0.60 0.49 0.41
0.41 0.46 0.44 0.31 0.27 0.28 0.30 0.28 0.32 0.39 0.40 0.39 0.39 0.38 0.34 0.33 0.31 0.31 0.30 0.30 0.32 0.33 0.27 0.19 0.14 0.11 0.10 0.11 0.13 0.18 0.32 0.56 0.81 1.11 1.26 1.46 1.26 1.11 0.92 0.71 0.53 0.43 0.39
0.62 0.64 0.65 0.66 0.59 0.45 0.42 0.44 0.43 0.51 0.50 0.43 0.40 0.42 0.40 0.36 0.34 0.33 0.29 0.32 0.32 0.31 0.28 0.25 0.23 0.18 0.15 0.13 0.14 0.18 0.28 0.40 0.50 0.91 1.45 1.40 1.20 1.25 1.20 0.89 0.64 0.50 0.42
0.83 0.83 0.77 0.84 0.83 0.68 0.59 0.53 0.61 0.64 0.62 0.56 0.47 0.46 0.44 0.51 0.56 0.51 0.42 0.44 0.42 0.41 0.39 0.36 0.33 0.27 0.22 0.17 0.20 0.24 0.25 0.30 0.56 1.08 1.58 1.32 1.25 1.34 1.34 1.15 0.86 0.68 0.54
1.05 1.03 1.00 0.87 0.80 0.78 0.68 0.68 0.76 0.72 0.71 0.65 0.70 0.67 0.70 0.98 1.09 0.88 0.91 0.80 0.72 0.64 0.57 0.50 0.43 0.37 0.30 0.23 0.32 0.34 0.27 0.37 0.71 1.26 1.30 1.15 1.25 1.44 1.56 1.36 1.08 0.88 0.76
1.44 1.23 1.28 1.16 1.01 1.15 1.20 1.05 1.05 1.04 1.04 0.97 1.11 1.15 1.21 1.35 1.33 1.26 1.36 1.16 1.05 0.94 0.89 0.90 0.65 0.53 0.49 0.50 0.51 0.49 0.45 0.49 0.70 0.98 1.13 1.18 1.33 1.56 1.75 1.56 1.27 1.14 1.08
1.89 1.68 1.57 1.58 1.49 1.56 1.82 1.68 1.45 1.32 1.35 1.37 1.47 1.40 1.62 1.71 1.68 1.63 1.68 1.57 1.53 1.48 1.50 1.38 1.16 0.99 0.91 0.78 0.68 0.69 0.68 0.67 0.79 1.01 1.14 1.17 1.30 1.60 1.85 1.79 1.57 1.38 1.31
2.12 2.03 1.81 1.87 1.90 2.01 2.20 2.05 1.85 1.91 1.72 1.63 1.78 1.69 1.78 1.85 1.85 1.95 1.87 1.86 1.76 1.74 1.71 1.55 1.46 1.42 1.33 1.20 0.97 0.92 0.95 0.87 0.92 1.07 1.14 1.18 1.21 1.48 1.85 2.02 1.92 1.70 1.65
2.06 2.15 2.21 2.18 2.20 2.07 2.13 2.13 1.98 1.92 2.00 1.84 1.80 1.82 1.79 1.86 2.07 2.14 2.13 2.11 2.07 2.03 2.11 1.90 1.70 1.80 1.66 1.58 1.40 1.31 1.25 1.23 1.23 1.33 1.50 1.45 1.25 1.31 1.62 1.98 2.11 2.08 2.06
2.05 2.09 2.22 2.23 2.28 2.21 2.18 2.20 2.14 2.05 2.03 2.10 2.14 2.17 1.99 1.93 2.18 2.26 2.44 2.39 2.32 2.28 2.31 2.27 2.13 2.16 1.96 1.84 1.72 1.60 1.55 1.62 1.61 1.54 1.67 1.82 1.58 1.48 1.49 1.65 1.86 2.03 2.12
1.71 1.86 1.99 2.08 2.16 2.38 2.49 2.58 2.45 2.55 2.54 2.48 2.34 2.34 2.21 2.16 2.30 2.54 2.66 2.65 2.62 2.52 2.62 2.73 2.66 2.47 2.33 2.15 1.99 1.74 1.66 1.77 1.80 1.79 1.80 1.94 2.07 1.93 1.80 1.65 1.70 1.84 2.03
1.48 1.79 1.97 2.11 2.29 2.44 2.66 2.87 2.86 2.98 2.94 2.90 2.82 2.71 2.75 2.80 2.73 2.86 3.00 3.07 3.07 3.10 3.09 2.94 3.07 2.86 2.77 2.58 2.24 2.03 1.80 1.75 1.84 1.78 1.83 1.82 1.93 1.99 2.01 1.89 1.76 1.77 1.96
1.48 1.80 2.06 2.24 2.50 2.82 2.93 3.13 3.09 3.27 3.40 3.49 3.59 3.46 3.30 3.37 3.38 3.49 3.47 3.51 3.53 3.59 3.44 3.40 3.41 3.15 2.94 2.89 2.46 2.25 2.08 1.90 1.89 1.87 1.82 1.84 1.79 1.70 1.77 1.87 1.97 1.79 1.88
1.96 2.04 2.16 2.32 2.54 2.76 3.08 3.44 3.62 3.73 3.94 4.08 4.16 4.27 4.23 4.20 4.34 4.40 4.29 4.19 4.04 3.93 3.74 3.63 3.46 3.27 3.03 2.95 2.81 2.45 2.01 1.73 1.70 1.62 1.65 1.76 1.76 1.69 1.70 1.79 1.87 1.82 1.72
2.26 2.28 2.35 2.47 2.74 3.03 3.43 3.92 4.34 4.51 4.63 4.67 4.70 4.90 5.00 5.05 5.23 5.32 5.25 5.03 4.78 4.46 4.02 3.69 3.51 3.34 3.05 3.05 3.01 2.90 2.34 1.93 1.61 1.31 1.39 1.44 1.49 1.60 1.58 1.58 1.67 1.78 1.72
2.24 2.33 2.47 2.79 3.19 3.63 4.11 4.64 5.08 5.33 5.37 5.32 5.05 5.16 5.32 5.29 5.38 5.58 5.54 5.28 4.89 4.32 3.83 3.66 3.58 3.45 3.26 3.17 3.01 3.06 2.65 2.24 1.89 1.47 1.25 1.18 1.24 1.28 1.29 1.35 1.43 1.55 1.54
2.20 2.39 2.55 2.90 3.44 3.90 4.34 5.01 5.54 5.82 6.03 6.13 5.92 5.62 5.46 5.28 5.17 5.08 4.94 4.53 4.10 3.77 3.49 3.38 3.37 3.20 3.18 3.09 3.01 2.71 2.48 2.23 2.02 1.69 1.36 1.17 1.17 1.16 1.16 1.16 1.24 1.44 1.52
2.13 2.17 2.28 2.76 3.36 4.05 4.73 5.29 5.79 6.17 6.34 6.29 5.93 5.56 5.13 4.79 4.36 4.01 3.67 3.40 3.27 3.09 2.88 2.78 2.75 2.69 2.56 2.51 2.53 2.47 2.41 2.19 1.90 1.70 1.50 1.33 1.30 1.20 1.17 1.23 1.29 1.38 1.47
1.80 1.94 2.16 2.55 3.24 3.98 4.58 5.13 5.55 5.92 5.97 5.68 5.23 4.75 4.44 4.07 3.62 3.17 2.91 2.67 2.52 2.36 2.15 2.04 2.04 2.08 2.15 2.20 2.24 2.21 2.18 2.16 2.04 1.95 1.81 1.62 1.48 1.42 1.32 1.27 1.34 1.40 1.54